Home > Weather > Germany > Hattingen > Past weeks

Flag for Germany Weather past 2 weeks in Hattingen, North Rhine-Westphalia, Germany

46 °F

Drizzle. Low clouds.

Feels Like: 44 °F
Forecast: 46 / 52 °F
Wind: 3 mph from Southwest

Location: Essen

Current Time: Dec 1, 2015 at 4:13:05 PM

Latest Report: Dec 1, 2015 at 3:00 PM

Visibility: 3 mi

Pressure: 30.24 "Hg

Humidity: 97%

Dew point: 45 °F

Location of HattingenLocation

Historic Weather in Hattingen — Graph


Hattingen temperature yesterday

Maximum temperature yesterday: 50 °F (at 11:00 PM)
Minimum temperature yesterday: 44 °F (at 12:00 PM)
Average temperature yesterday: 48 °F

Past Weeks' High & Low Weather Summary

High59 °F (Nov 17, 9:00 PM)100% (Nov 17, 4:00 AM)30.27 "Hg (Nov 17, 4:00 AM)
Low32 °F (Nov 22, 8:00 AM)63% (Nov 23, 2:00 PM)29.38 "Hg (Nov 21, 12:00 PM)
Average44 °F88%29.87 "Hg
* Reported Nov 16 3:00 PM — Dec 1 3:00 PM, Hattingen, Weather by CustomWeather, © 2015

Note: Actual official high and low records may vary slightly from our data, if they occured in-between our weather recording intervals... More about our weather records


Hattingen weather history for previous 24 hours

Time TempWeatherWind HumidityBarometerVisibility
3:00 PM
Tue, Dec 1
46 °FDrizzle. Low clouds.3 mph97%30.24 "Hg3 mi
2:00 PM45 °FLight freezing rain. Low clouds.2 mph97%30.24 "Hg2 mi
1:00 PM45 °FRain. Low clouds.1 mph97%30.24 "Hg2 mi
12:00 PM45 °FLow clouds.N/A96%30.24 "Hg5 mi
11:00 AM44 °FDrizzle. Low clouds.3 mph96%30.24 "Hg4 mi
10:00 AMN/AFog.2 mphN/AN/A4 mi
8:00 AM44 °FOvercast.1 mph97%30.19 "Hg22 mi
7:00 AM44 °FOvercast.1 mph99%30.17 "Hg17 mi
6:00 AM45 °FLight freezing rain. Overcast.2 mph91%30.15 "Hg17 mi
4:00 AM48 °FLow clouds.3 mph94%30.07 "Hg17 mi
3:00 AM50 °FLight rain. Low clouds.3 mph97%30.04 "Hg2 mi
2:00 AM51 °FRain. Low clouds.6 mph100%29.99 "Hg2 mi
1:00 AM50 °FRain. Low clouds.8 mph100%29.96 "Hg2 mi
11:00 PM
Mon, Nov 30
50 °FRain. Low clouds.10 mph100%29.91 "Hg2 mi
10:00 PM49 °FLight rain. Low clouds.10 mph100%29.89 "Hg2 mi
9:00 PM49 °FLight rain. Low clouds.10 mph99%29.87 "Hg2 mi
8:00 PM49 °FRain. Low clouds.12 mph98%29.87 "Hg2 mi
7:00 PM49 °FLight rain. Low clouds.9 mph97%29.87 "Hg3 mi
6:00 PM49 °FLight rain. Low clouds.10 mph95%29.88 "Hg4 mi
5:00 PM49 °FLight rain. Low clouds.8 mph97%29.88 "Hg4 mi
4:00 PM49 °FLight rain. Low clouds.9 mph95%29.91 "Hg4 mi
Weather by CustomWeather, © 2015

See weather overviewHow to use our weather pages